Weather History for Oklahoma City, OK

Change the Weather History Date:

Thursday, January 30, 2014

  Actual Average Record
Temperature  
Mean Temperature 45 °F 40 °F  
Max Temperature 57 °F 51 °F 74 °F (1917)
Min Temperature 32 °F 30 °F -1 °F (1895)
Degree Days  
Heating Degree Days 20 25  
Month to date heating degree days 797 772  
Since 1 July heating degree days 2325 2127  
Moisture  
Dew Point 20 °F    
Average Humidity 44    
Maximum Humidity 65    
Minimum Humidity 23    
Precipitation  
Precipitation 0.00 in 0.06 in 2.13 in (2002)
Month to date precipitation 0.07 1.34  
Year to date precipitation 0.07 1.34  
Snow  
Snow 0.00 in 0.10 in 1.20 in (1942)
Month to date snowfall 0.6 2.7  
Since 1 July snowfall 4.7 5.2  
Snow Depth 0.00 in    
Sea Level Pressure  
Sea Level Pressure 29.80 in    
Wind  
Wind Speed 17 mph (SSE)    
Max Wind Speed 30 mph    
Max Gust Speed 41 mph    
Visibility 10 miles    
Events      
T = Trace of Precipitation, MM = Missing Value Source: NWS Daily Summary

Daily Weather History Graph

Daily Weather History Graph

Search for Another Location

Airport:

Trip Planner

Search our weather history database for the weather conditions in past years. The results will help you decide how hot, cold, wet, or windy it might be!

Date:

Astronomy

Jan. 30, 2014 Rise Set
Actual Time 7:31 AM CST 5:56 PM CST
Civil Twilight 7:04 AM CST 6:23 PM CST
Nautical Twilight 6:34 AM CST 6:53 PM CST
Astronomical Twilight 6:04 AM CST 7:23 PM CST
Moon 6:59 AM CST (1/30) 6:07 PM CST (1/30)
Length of Visible Light 11h 18m
Length of Day
10h 25m
Waning Crescent, 0% of the Moon is Illuminated
Jan 30
Waning Crescent
Jan 30
New
Feb 6
First Quarter
Feb 14
Full
Feb 22
Last Quarter

Hourly Weather History & Observations

Time (CST) Temp. Windchill Dew Point Humidity Pressure Visibility Wind Dir Wind Speed Gust Speed Precip Events Conditions
12:52 AM 33.1 °F 21.9 °F 12.0 °F 42% 29.96 in 10.0 mi South 18.4 mph - N/A   Partly Cloudy
1:52 AM 33.1 °F 20.9 °F 12.0 °F 42% 29.92 in 10.0 mi South 21.9 mph 28.8 mph N/A   Mostly Cloudy
2:52 AM 34.0 °F 21.5 °F 12.0 °F 40% 29.88 in 10.0 mi South 24.2 mph 34.5 mph N/A   Overcast
3:52 AM 34.0 °F 21.5 °F 12.0 °F 40% 29.86 in 10.0 mi South 24.2 mph 29.9 mph N/A   Mostly Cloudy
4:52 AM 34.0 °F 21.0 °F 12.0 °F 40% 29.81 in 10.0 mi South 26.5 mph 38.0 mph N/A   Overcast
5:52 AM 34.0 °F 22.1 °F 12.9 °F 42% 29.80 in 10.0 mi South 21.9 mph 34.5 mph N/A   Overcast
6:52 AM 33.1 °F 20.9 °F 12.9 °F 43% 29.79 in 10.0 mi South 21.9 mph 31.1 mph N/A   Mostly Cloudy
7:52 AM 33.1 °F 20.6 °F 14.0 °F 46% 29.79 in 10.0 mi South 23.0 mph 29.9 mph N/A   Overcast
8:52 AM 36.0 °F 23.9 °F 15.1 °F 43% 29.78 in 10.0 mi South 25.3 mph 33.4 mph N/A   Overcast
9:52 AM 39.9 °F 29.2 °F 16.0 °F 38% 29.76 in 10.0 mi South 25.3 mph 33.4 mph N/A   Overcast
10:52 AM 44.1 °F 34.6 °F 16.0 °F 32% 29.78 in 10.0 mi SSW 26.5 mph 34.5 mph N/A   Overcast
11:52 AM 48.0 °F - 17.1 °F 29% 29.78 in 10.0 mi South 24.2 mph 27.6 mph N/A   Overcast
12:52 PM 51.1 °F - 18.0 °F 27% 29.78 in 10.0 mi South 20.7 mph 26.5 mph N/A   Overcast
1:52 PM 53.1 °F - 18.0 °F 25% 29.77 in 10.0 mi SSW 16.1 mph 21.9 mph N/A   Overcast
2:52 PM 55.0 °F - 19.0 °F 24% 29.77 in 10.0 mi South 11.5 mph - N/A   Overcast
3:52 PM 57.0 °F - 19.9 °F 24% 29.75 in 10.0 mi South 10.4 mph - N/A   Mostly Cloudy
4:52 PM 54.0 °F - 21.9 °F 29% 29.78 in 10.0 mi SE 9.2 mph - N/A   Mostly Cloudy
5:52 PM 48.0 °F - 24.1 °F 39% 29.78 in 10.0 mi ESE 8.1 mph - N/A   Overcast
6:52 PM 46.0 °F 41.9 °F 27.0 °F 47% 29.81 in 10.0 mi ESE 8.1 mph - N/A   Overcast
7:52 PM 46.9 °F - 30.0 °F 52% 29.82 in 10.0 mi ESE 11.5 mph - N/A   Mostly Cloudy
8:52 PM 46.0 °F 40.6 °F 30.9 °F 56% 29.81 in 10.0 mi ESE 11.5 mph - N/A   Overcast
9:52 PM 45.0 °F 40.1 °F 32.0 °F 60% 29.81 in 10.0 mi East 9.2 mph - N/A   Mostly Cloudy
10:52 PM 45.0 °F 40.1 °F 33.1 °F 63% 29.79 in 10.0 mi ESE 9.2 mph - N/A   Mostly Cloudy
11:52 PM 45.0 °F 40.1 °F 35.1 °F 68% 29.78 in 10.0 mi ESE 9.2 mph - N/A   Mostly Cloudy